Home > Weather > Howell > Past weeks

Flag for USA Past Weather in Howell, Michigan, USA — Yesterday and Last 2 Weeks

Now
80 °F

Sunny.


Feels Like: 82 °F
Forecast: 64 / 82 °F
Wind: No wind

Location: Livingston County Airport

Current Time: Aug 29, 2016 at 7:36:18 PM

Latest Report: Aug 29, 2016 at 6:55 PM


Visibility: 10 mi

Pressure: 30.21 "Hg

Humidity: 57%

Dew Point: 63 °F

Location of HowellLocation

Past Weather in Howell — Graph

°F

Howell Temperature Yesterday

Maximum temperature yesterday: 84 °F (at 2:55 PM)
Minimum temperature yesterday: 67 °F (at 11:55 PM)
Average temperature yesterday: 76 °F

High & Low Weather Summary for the Past Weeks

 TemperatureHumidityPressure
High85 °F (Aug 17, 2:15 PM)100% (Aug 29, 8:14 AM)30.31 "Hg (Aug 29, 8:14 AM)
Low54 °F (Aug 22, 6:55 AM)39% (Aug 22, 1:15 PM)29.60 "Hg (Aug 20, 7:15 PM)
Average72 °F82%30.06 "Hg
* Reported Aug 14 6:15 PM — Aug 29 6:35 PM, Howell, Weather by CustomWeather, © 2016

Note: Actual official high and low records may vary slightly from our data, if they occured in-between our weather recording intervals... More about our weather records

Advertising

Howell Weather History for the Previous 24 Hours

Scroll right to see more
 ConditionsComfort  
Time TempWeatherWind HumidityBarometerVisibility
6:35 PM
Mon, Aug 29
81 °FSunny.No wind53%30.22 "Hg10 mi
6:15 PM81 °FSunny.3 mph53%30.22 "Hg10 mi
5:54 PM81 °FSunny.No wind49%30.22 "Hg10 mi
5:35 PM81 °FSunny.6 mph51%30.23 "Hg10 mi
5:15 PM82 °FSunny.3 mph52%30.23 "Hg10 mi
4:54 PM82 °FSunny.3 mph50%30.24 "Hg10 mi
4:35 PM82 °FSunny.No wind49%30.24 "Hg10 mi
4:15 PM81 °FSunny.7 mph51%30.25 "Hg10 mi
3:55 PM82 °FSunny.5 mph53%30.25 "Hg10 mi
3:35 PM81 °FSunny.5 mph52%30.25 "Hg10 mi
3:14 PM80 °FScattered clouds.No wind54%30.27 "Hg10 mi
2:55 PM81 °FScattered clouds.No wind54%30.28 "Hg10 mi
2:35 PM79 °FScattered clouds.5 mph59%30.29 "Hg7 mi
2:14 PM80 °FScattered clouds.5 mph60%30.29 "Hg10 mi
1:55 PM80 °FPartly sunny.3 mph63%30.29 "Hg10 mi
1:35 PM78 °FPartly sunny.No wind64%30.29 "Hg7 mi
1:15 PM78 °FPartly sunny.No wind66%30.30 "Hg10 mi
12:55 PM78 °FScattered clouds.3 mph69%30.30 "Hg7 mi
12:34 PM77 °FScattered clouds.5 mph72%30.31 "Hg10 mi
12:15 PM76 °FScattered clouds.6 mph75%30.30 "Hg10 mi
11:55 AM75 °FScattered clouds.6 mph79%30.31 "Hg10 mi
11:35 AM74 °FScattered clouds.5 mph87%30.31 "Hg10 mi
11:15 AM73 °FScattered clouds.5 mph92%30.31 "Hg10 mi
10:54 AM72 °FScattered clouds.6 mph94%30.30 "Hg10 mi
10:35 AM71 °FPartly sunny.8 mph96%30.30 "Hg10 mi
10:15 AM68 °FPartly sunny.6 mph98%30.30 "Hg10 mi
9:54 AM68 °FPartly sunny.6 mph99%30.30 "Hg7 mi
9:35 AM67 °FFog.6 mph100%30.30 "Hg4 mi
9:15 AM66 °FFog.3 mph100%30.30 "Hg1 mi
8:55 AM64 °FFog.No wind100%30.29 "Hg0 mi
8:35 AM63 °FFog.No wind100%30.29 "Hg0 mi
8:14 AM62 °FFog.No wind100%30.28 "Hg0 mi
7:55 AM62 °FFog.No wind99%30.28 "Hg0 mi
7:35 AM62 °FFog.3 mph99%30.28 "Hg1 mi
7:14 AM60 °FFog.No wind99%30.28 "Hg0 mi
6:55 AM60 °FFog.No wind99%30.27 "Hg0 mi
6:35 AM60 °FFog.No wind99%30.27 "Hg1 mi
6:15 AM62 °FFog.No wind98%30.27 "Hg0 mi
5:55 AM61 °FFog.No wind98%30.26 "Hg0 mi
5:34 AM62 °FClear.No wind98%30.25 "Hg7 mi
5:15 AM62 °FClear.No wind98%30.25 "Hg10 mi
4:54 AM62 °FFog.No wind98%30.25 "Hg5 mi
4:35 AM63 °FClear.No wind98%30.25 "Hg7 mi
4:15 AM63 °FFog.No wind98%30.25 "Hg5 mi
3:55 AM63 °FClear.No wind99%30.25 "Hg7 mi
3:35 AM63 °FClear.No wind97%30.24 "Hg7 mi
3:14 AM63 °FClear.No wind98%30.24 "Hg7 mi
2:55 AM64 °FFog.No wind98%30.24 "Hg2 mi
2:35 AM64 °FClear.No wind97%30.25 "Hg7 mi
2:15 AM64 °FClear.No wind96%30.25 "Hg7 mi
1:55 AM65 °FClear.No wind96%30.25 "Hg7 mi
1:34 AM66 °FClear.No wind97%30.25 "Hg10 mi
1:15 AM66 °FClear.No wind96%30.25 "Hg10 mi
12:55 AM67 °FClear.No wind96%30.25 "Hg10 mi
12:34 AM66 °FClear.No wind95%30.25 "Hg10 mi
12:15 AM67 °FClear.No wind95%30.25 "Hg10 mi
11:55 PM
Sun, Aug 28
67 °FClear.No wind92%30.25 "Hg10 mi
11:35 PM69 °FClear.No wind91%30.24 "Hg10 mi
11:15 PM69 °FClear.No wind90%30.23 "Hg10 mi
10:54 PM70 °FClear.No wind88%30.23 "Hg10 mi
10:35 PM71 °FClear.No wind87%30.23 "Hg10 mi
10:15 PM71 °FClear.No wind85%30.23 "Hg10 mi
9:54 PM72 °FClear.No wind85%30.22 "Hg10 mi
9:35 PM72 °FClear.No wind84%30.21 "Hg10 mi
9:14 PM73 °FSunny.No wind81%30.20 "Hg10 mi
8:55 PM74 °FSunny.No wind78%30.19 "Hg10 mi
8:35 PM75 °FSunny.No wind77%30.18 "Hg10 mi
8:14 PM76 °FSunny.No wind74%30.18 "Hg10 mi
7:55 PM77 °FSunny.No wind73%30.18 "Hg10 mi
7:34 PM79 °FSunny.3 mph69%30.18 "Hg10 mi
7:15 PM79 °FSunny.No wind69%30.18 "Hg10 mi
Weather by CustomWeather, © 2016

See weather overviewHow to use our weather pages